www.pogodaiklimat.ru

Погода и климат >> Архив погоды >> Индия >> округ Дели >> Нью-Дели аэропорт


ПОГОДА в Нью-Дели аэропорт

  • Прогноз погоды в Нью-Дели аэропорт
  • Монитор погоды в Нью-Дели аэропорт

АРХИВ ПОГОДЫ в Нью-Дели аэропорт

Время (UTC), дата Ветер
(напр.,м/с)
 
Видим.   Явления Облачность Т
(С)
Тd
(С)
f
(%)
Тe
(С)
Тes
(С)
Комфортность P
(гПа)
Po
(гПа)
Тmin
(С)
Tmax
(С)
R
(мм)
R24
(мм)
S
(см)
00 12.07 ЮЗ 5 2000 м мгла 3/0
[Ac trans]
+31.8 +22.1 57 +41 +41 опасность
перегрева
995.8 969.7
03 12.07 З 4 2000 м пыль 9/5 900 м
[Cb calv As op]
+33.2 +22.4 53 +42 +43 опасность
перегрева
998.9 972.8 +30.9 +40.6
06 12.07 З 6 2000 м пыль 9/5 900 м
[Cb calv As op]
+36.0 +22.0 44 +44 +46 опасность
перегрева
999.4 973.6
09 12.07 З 5 2000 м пыль 8/4 900 м
[Sc Ac trans]
+38.6 +22.2 39 +47 +50 опасность
перегрева
997.3 971.7
12 12.07 З 4 2000 м пыль 8/4 900 м
[Sc Ac trans]
+38.0 +22.1 40 +46 +47 опасность
перегрева
996.3 970.7 +39.4
15 12.07 Ю 3 2000 м мгла 8/4 900 м
[Sc Ac trans]
+36.2 +21.6 43 +44 +44 опасность
перегрева
997.8 972.0
18 12.07 штиль 0 2000 м мгла 5/3 1200 м
[Sc Ac trans]
+33.6 +24.2 58 +46 +46 опасность
перегрева
998.7 972.7
21 12.07 З 2 2000 м мгла 6/3 1200 м
[Sc Ac trans]
+32.8 +24.3 61 +45 +45 опасность
перегрева
997.5 971.4
00 13.07 З 5 2000 м мгла 5/3 1200 м
[Sc Ac trans]
+32.2 +22.9 58 +42 +42 опасность
перегрева
997.4 971.3
03 13.07 З 8 2000 м мгла 8/4 1050 м
[Sc Ac trans]
+33.4 +21.6 50 +41 +42 опасность
перегрева
999.5 973.4 +31.4 +39.4
06 13.07 З 8 2000 м пыльный позёмок 8/4 1200 м
[Sc Ac trans]
+37.2 +21.1 39 +44 +46 опасность
перегрева
999.8 974.0
09 13.07 З 6 2000 м пыль 5/3 1200 м
[Sc Ac trans]
+40.0 +22.2 36 +48 +51 опасность
перегрева
997.2 971.7
12 13.07 З 6 2000 м пыль 4/0
[Ac trans]
+38.4 +20.0 34 +44 +45 опасность
перегрева
996.4 970.8 +40.9
15 13.07 ЮЗ 3 2000 м мгла 3/3 1200 м
[Sc]
+35.8 +20.7 41 +42 +42 опасность
перегрева
997.3 971.5
18 13.07 СВ 3 2000 м мгла 3/3 1200 м
[Sc]
+33.0 +24.5 61 +46 +46 опасность
перегрева
998.1 972.0
21 13.07 ЮВ 3 2000 м мгла 5/3 1200 м
[Sc Ac trans]
+31.4 +23.9 64 +43 +43 опасность
перегрева
997.1 970.9
00 14.07 ЮЗ 4 2000 м мгла 6/3 900 м
[Sc Ac trans]
+31.4 +22.7 60 +41 +41 опасность
перегрева
996.1 970.0
03 14.07 З 6 2000 м пыль 5/3 1200 м
[Sc Ac trans]
+34.0 +20.6 46 +41 +43 опасность
перегрева
998.5 972.5 +30.4
06 14.07 З 6 2000 м пыль 5/3 1200 м
[Sc Ac trans]
+37.0 +21.2 40 +44 +49 опасность
перегрева
998.3 972.6
09 14.07 З 4 2000 м пыль 8/4 1050 м
[Sc Ac trans]
+38.0 +21.0 37 +44 +49 опасность
перегрева
996.7 971.1
12 14.07 З 4 2000 м мгла 8/4 1200 м
[Sc Ac trans]
+37.4 +21.0 39 +44 +45 опасность
перегрева
994.8 969.2 +39.8
15 14.07 В 4 2000 м мгла 5/3 1200 м
[Sc Ac trans]
+33.6 +23.9 57 +45 +45 опасность
перегрева
996.7 970.7
18 14.07 СВ 4 2000 м мгла 8/4 1200 м
[Sc Ac trans]
+31.6 +22.6 59 +41 +41 опасность
перегрева
997.4 971.2
21 14.07 В 5 2000 м мгла 8/4 1200 м
[Sc Ac trans]
+29.0 +22.5 68 +38 +38 очень
душно
996.4 970.0
00 15.07 В 3 2000 м мгла 9/5 1050 м
[Sc Ac trans]
+28.0 +22.7 73 +37 +37 очень
душно
995.8 969.4
03 15.07 В 5 2000 м мгла 8/4 1200 м
[Sc Ac trans]
+29.6 +23.5 70 +40 +42 очень
душно
998.1 971.8 +27.2 +39.8
06 15.07 З 3 2000 м мгла 8/4 1200 м
[Sc Ac trans]
+34.6 +22.8 50 +44 +51 опасность
перегрева
997.5 971.6
09 15.07 З 4 2000 м пыль 10/4 900 м
[Cb calv As op]
+34.2 +23.6 54 +45 +47 опасность
перегрева
996.5 970.6
12 15.07 В 4 2000 м в посл. час дождь {гроза} 10/6 900 м
[Cb calv As op]
+24.6 +22.8 90 +33 +33 очень
душно
997.8 971.0 +37.0 26
15 15.07 СВ 3 4000 м дымка 6/3 900 м
[Sc Ac trans]
+26.2 +24.5 90 +37 +37 очень
душно
997.9 971.3 27
18 15.07 В 3 4000 м дымка 6/3 900 м
[Sc Ac trans]
+25.4 +23.9 91 +35 +35 очень
душно
999.6 972.8 27
21 15.07 В 3 4000 м дымка 9/4 900 м
[Sc Ac trans]
+25.8 +21.9 79 +33 +33 очень
душно
997.9 971.2 27
00 16.07 В 5 4000 м дымка 8/4 900 м
[Sc Ac trans]
+25.6 +22.6 84 +34 +34 очень
душно
998.7 972.0 27
03 16.07 СВ 5 2000 м дымка {гроза, дождь} 8/4 900 м
[Sc Ac trans]
+26.8 +23.3 81 +36 +38 очень
душно
1001.3 974.6 +22.3 +37.0 27
06 16.07 В 4 2000 м мгла 9/5 900 м
[Sc As op]
+30.6 +21.7 59 +39 +41 очень
душно
1002.1 975.7
09 16.07 В 4 2000 м слаб. морось 10/5 900 м
[Cb calv As op]
+29.4 +25.4 79 +43 +44 опасность
перегрева
1001.6 975.1 0.6
12 16.07 СВ 4 2000 м дымка 9/4 900 м
[Cb calv Ac trans]
+29.8 +23.7 70 +41 +41 опасность
перегрева
1000.1 973.7 +33.2 2
15 16.07 СВ 3 4000 м дымка 9/4 900 м
[Cb calv Ac trans]
+28.0 +24.3 80 +39 +39 очень
душно
1001.5 974.9 2
18 16.07 СВ 2 2000 м дымка 8/4 900 м
[Cb calv Ac trans]
+27.2 +24.0 83 +38 +38 очень
душно
1002.3 975.6 2
21 16.07 В 3 2000 м дымка 8/4 900 м
[Cb calv Ac trans]
+26.8 +23.9 84 +37 +37 очень
душно
1001.4 974.7 2
00 17.07 В 4 2000 м дымка 10/5 900 м
[Cb calv As op]
+26.2 +24.5 90 +37 +37 очень
душно
1001.3 974.6 6
03 17.07 СЗ 2 2000 м гроза с градом 10/5 750 м
[Cb cap As op]
+23.8 +22.9 95 +32 +32 очень
душно
1003.8 976.8 +22.6 +33.2 17
06 17.07 З 3 2000 м дымка {гроза, дождь} 10/5 750 м
[Cb calv As op]
+25.0 +23.8 93 +34 +36 очень
душно
1003.5 976.6 3
09 17.07 С 2 2000 м дымка 9/5 900 м
[Sc Ac trans]
+28.4 +24.4 79 +40 +45 очень
душно
1002.0 975.4 4
12 17.07 СЗ 3 4000 м мгла 8/4 1200 м
[Sc Ac trans]
+31.0 +24.4 68 +43 +44 опасность
перегрева
999.6 973.3 +31.6 4
15 17.07 СЗ 2 2000 м мгла 8/4 1200 м
[Sc Ac trans]
+29.6 +23.2 69 +40 +40 очень
душно
1000.4 974.0 4
18 17.07 В 2 2000 м дымка 8/4 1200 м
[Sc Ac trans]
+28.0 +24.3 80 +39 +39 очень
душно
1001.8 975.2 4
21 17.07 ЮЗ 2 2000 м гроза, ливневой дождь 10/6 600 м
[Cb cap As op]
+26.2 +25.1 94 +38 +38 очень
душно
1001.9 975.2 10
00 18.07 Ю 2 2000 м гроза, ливневой дождь 10/6 600 м
[Cb cap As op]
+23.4 +22.5 95 +32 +32 очень
душно
1001.7 974.7 58
03 18.07 Ю 2 2000 м слаб. дождь {гроза} 10/6 600 м
[Cb calv As op]
+24.8 +23.9 95 +34 +35 очень
душно
1002.9 976.0 +22.2 61
06 18.07 З 3 2000 м дымка {гроза, дождь} 9/4 900 м
[Sc Ac trans]
+25.0 +23.8 93 +34 +40 очень
душно
1003.8 976.9 19
09 18.07 ЮВ 2 2000 м дымка 8/4 1200 м
[Sc Ac trans]
+26.6 +24.3 87 +37 +43 очень
душно
1001.6 974.9 19
12 18.07 Ю 2 2000 м дымка 6/4 1200 м
[Sc Ac trans]
+28.6 +23.7 75 +39 +41 очень
душно
999.8 973.3 +28.8 9
15 18.07 штиль 0 2000 м дымка 5/3 1200 м
[Sc Ac trans]
+27.2 +23.7 81 +37 +37 очень
душно
1000.9 974.3 9
18 18.07 штиль 0 2000 м дымка 5/3 1200 м
[Sc Ac trans]
+26.8 +23.6 83 +37 +37 очень
душно
1001.8 975.1 9

 

Местоположение метеостанции Нью-Дели аэропорт (округ Дели, Индия): широта 28.57 долгота 77.12 высота над уровнем моря 237 м.

В архиве по умолчанию представлена погода в Нью-Дели аэропорт за последнюю неделю. Архивные данные за месяц целиком и за предыдущие месяцы, начиная с января 2011 года, Вы можете получить, выбрав интересующий диапазон дат из раскрывающегося списка и нажав кнопку "Ввод!".


*Определитесь, кто Вы:
робот инопланетянин человек

Внимание! Время в таблицах - всемирное. Для получения местного времени необходимо прибавить поправку, которая равна 5.5 ч.

Смотрите также архив погоды в соседних городах и на ближайших метеорологических станциях:

Погода в Нью-Дели (округ Дели, Индия) (8 км)
Погода в Нью-Дели Айя Нагар (округ Дели, Индия) (10 км)
Погода в Ридже (округ Дели, Индия) (17 км)
Погода в Рохтаке (Харьяна, Индия) (60 км)
Погода в Мератхе (Уттар-Прадеш, Индия) (77 км)
Погода в Карнале (Харьяна, Индия) (126 км)
Погода в Хисаре (Харьяна, Индия) (151 км)
Погода в Пилани (Раджастхан, Индия) (153 км)
Погода в Нейджибабаде (Уттар-Прадеш, Индия) (169 км)
Погода в Агре (Уттар-Прадеш, Индия) (179 км)

Пояснения к столбцам:

Ветер - указаны скорость ветра в м/с - средняя за 10 мин, порывы в срок и между сроками (в фигурных скобках) и направление, откуда дует ветер: С - северный, СВ - северо-восточный, В - восточный, ЮВ - юго-восточный, Ю - южный, ЮЗ - юго-западный, З - западный, СЗ - северо-западный.
Видимость - горизонтальная дальность видимости в метрах или километрах. При видимости от 1 до 10 км при отсутствии осадков обычно наблюдается дымка, при ухудшении видимости до 1 км и менее - туман. В сухую погоду видимость может ухудшаться дымом, пылью или мглою.
Явления - указаны атмосферные явления, наблюдавшиеся в срок или в последний час перед сроком; фигурными скобками обозначены явления, наблюдавшиеся между сроками (за 1-3 часа до срока); квадратными скобками обозначены град или гололедные отложения с указанием их диаметра в мм.
Облачность - указаны через наклонную черту общая и нижняя облачность в баллах и высота нижней границы облаков в метрах; квадратными скобками обозначены формы облаков: Ci - перистые, Cs - перисто-слоистые, Cc - перисто-кучевые, Ac - высококучевые, As - высокослоистые, Sc - слоисто-кучевые, Ns - слоисто-дождевые, Cu - кучевые, Cb - кучево-дождевые. Подробнее классификацию облаков см. в Атласе облаков (PDF).
T - Температура воздуха - температура, измеренная на высоте 2 м над землей.
Td - Температура точки росы - температура, при понижении до которой содержащийся в воздухе водяной пар достигнет насыщения.
f - Относительная влажность воздуха - влажноcть воздуха, измеренная на высоте 2 м над землей.
Te - Эффективная температура - температура, которую ощущает одетый по сезону человек в тени. Характеристика душности погоды. При расчете учитывается влияние влажности воздуха и скорости ветра на теплоощущения человека.
Tes - Эффективная температура на солнце - температура, которую ощущает человек, с поправкой на солнечный нагрев. Характеристика знойности погоды. Зависит от высоты солнца над горизонтом, облачности и скорости ветра. Ночью, в пасмурную погоду, а также при ветре 12 м/с и более поправка равна нулю.
P - Атмосферное давление - приведенное к уровню моря атмосферное давление.
Po - Атмосферное давление - измеренное на уровне метеостанции атмосферное давление.
Tmin - Минимальная температура - минимум температуры воздуха на высоте 2 м над землей.
Tmax - Максимальная температура - максимум температуры воздуха на высоте 2 м над землей.
R - Количество осадков - Количество выпавших осадков за период времени, мм. При наведении курсора мыши на число - период времени, за который выпало указанное количество осадков.
R24 - Количество осадков - Количество выпавших осадков за 24 часа, мм.
S - Снежный покров - Высота снежного покрова, см. При наведении курсора мыши на число - состояние снежного покрова и степень покрытия местности в баллах.